Weather History for KMHT - February, 2014

Change the Weather History Date:

Saturday, February 8, 2014

  Actual Average Record
Temperature  
Mean Temperature 18 °F -  
Max Temperature 28 °F 35 °F 50 °F (1951)
Min Temperature 9 °F 17 °F -10 °F (1967)
Degree Days  
Heating Degree Days 46    
Cooling Degree Days 0    
Moisture  
Dew Point 1 °F    
Average Humidity 42    
Maximum Humidity 67    
Minimum Humidity 29    
Precipitation  
Precipitation 0.00 in - 1.64 in (1951)
Month to date precipitation  
Year to date precipitation  
Snow  
Snow 0.00 in - - ()
Month to date snowfall  
Since 1 July snowfall  
Snow Depth 9.00 in    
Sea Level Pressure  
Sea Level Pressure 30.23 in    
Wind  
Wind Speed 5 mph (West)    
Max Wind Speed 10 mph    
Max Gust Speed -    
Visibility 10 miles    
Events      
T = Trace of Precipitation, MM = Missing Value Source: NWS Daily Summary

Daily Weather History Graph

Daily Weather History Graph

Search for Another Location

Airport or City:

Trip Planner

Search our weather history database for the weather conditions in past years. The results will help you decide how hot, cold, wet, or windy it might be!

Date:

Astronomy

Feb. 08, 2014 Rise Set
Actual Time 6:52 AM EST 5:07 PM EST
Civil Twilight 6:22 AM EST 5:37 PM EST
Nautical Twilight 5:49 AM EST 6:11 PM EST
Astronomical Twilight 5:16 AM EST 6:44 PM EST
Moon 11:57 AM EST (2/8) 2:04 AM EST (2/8)
Length of Visible Light 11h 14m
Length of Day
10h 15m
Waxing Gibbous, 68% of the Moon is Illuminated
Feb 8
Waxing Gibbous
Feb 14
Full
Feb 22
Last Quarter
Mar 1
New
Mar 8
First Quarter

Hourly Weather History & Observations

Time (EST) Temp. Windchill Dew Point Humidity Pressure Visibility Wind Dir Wind Speed Gust Speed Precip Events Conditions
12:53 AM 19.9 °F 14.9 °F 1.0 °F 44% 30.23 in 10.0 mi SW 3.5 mph - N/A   Clear
1:53 AM 14.0 °F 5.1 °F 1.0 °F 56% 30.23 in 10.0 mi SSE 5.8 mph - N/A   Clear
2:53 AM 16.0 °F 8.8 °F 1.9 °F 54% 30.24 in 10.0 mi SW 4.6 mph - N/A   Clear
3:53 AM 17.1 °F 8.7 °F -0.0 °F 47% 30.25 in 10.0 mi West 5.8 mph - N/A   Clear
4:53 AM 16.0 °F 8.8 °F -0.9 °F 47% 30.27 in 10.0 mi WSW 4.6 mph - N/A   Clear
5:53 AM 15.1 °F 6.4 °F -2.0 °F 47% 30.30 in 10.0 mi West 5.8 mph - N/A   Clear
6:53 AM 9.0 °F - -2.0 °F 61% 30.31 in 10.0 mi Calm Calm - N/A   Clear
7:53 AM 9.0 °F - -0.0 °F 67% 30.31 in 10.0 mi Calm Calm - N/A   Clear
8:53 AM 16.0 °F 7.4 °F -0.9 °F 47% 30.32 in 10.0 mi WSW 5.8 mph - N/A   Clear
9:53 AM 19.0 °F 13.9 °F -0.9 °F 42% 30.31 in 10.0 mi Variable 3.5 mph - N/A   Partly Cloudy
10:53 AM 21.9 °F 14.5 °F 1.0 °F 40% 30.29 in 10.0 mi WNW 5.8 mph - N/A   Partly Cloudy
11:53 AM 24.1 °F 15.2 °F 1.0 °F 37% 30.25 in 10.0 mi NW 8.1 mph - N/A   Scattered Clouds
12:53 PM 26.1 °F 17.6 °F -0.0 °F 32% 30.22 in 10.0 mi West 8.1 mph - N/A   Scattered Clouds
1:53 PM 28.9 °F 20.4 °F -0.0 °F 29% 30.19 in 10.0 mi WNW 9.2 mph - N/A   Scattered Clouds
2:53 PM 28.9 °F 21.9 °F -0.0 °F 29% 30.20 in 10.0 mi WSW 6.9 mph - N/A   Mostly Cloudy
3:53 PM 28.9 °F 22.8 °F 1.9 °F 32% 30.19 in 10.0 mi West 5.8 mph - N/A   Mostly Cloudy
4:53 PM 28.9 °F 23.9 °F 1.0 °F 30% 30.20 in 10.0 mi South 4.6 mph - N/A   Overcast
5:53 PM 28.0 °F - 3.0 °F 34% 30.21 in 10.0 mi Calm Calm - N/A   Overcast
6:53 PM 28.0 °F 22.8 °F 1.9 °F 33% 30.21 in 10.0 mi WSW 4.6 mph - N/A   Overcast
7:53 PM 27.0 °F 23.0 °F 3.0 °F 36% 30.19 in 10.0 mi WSW 3.5 mph - N/A   Overcast
8:53 PM 26.1 °F 21.9 °F 3.9 °F 39% 30.17 in 10.0 mi NNW 3.5 mph - N/A   Overcast
9:53 PM 24.1 °F 16.0 °F 5.0 °F 44% 30.17 in 10.0 mi NNW 6.9 mph - N/A   Overcast
10:53 PM 24.1 °F 15.2 °F 6.1 °F 46% 30.17 in 10.0 mi NNW 8.1 mph - N/A   Overcast
11:53 PM 23.0 °F 12.4 °F 5.0 °F 46% 30.17 in 10.0 mi NNW 10.4 mph - N/A   Overcast